Visibility
15.0 15.0 15.0 15.0 15.0 15.0 4.6 0.7 0.0 1.5 14.9 0.0 0.0 0.1 3.7 9.7 15.0 15.0 12.6 15.0 15.0 15.0 15.0 15.0 15.0 15.0 15.0 15.0 15.0 15.0 15.0 15.0 15.0 15.0 15.0 15.0 15.0 15.0 15.0 15.0 15.0 15.0 15.0 15.0
15.0 13.9 15.0 13.4 13.7 15.0 5.0 0.1 2.8 5.6 14.3 0.0 0.0 1.9 7.6 15.0 15.0 15.0 15.0 15.0 15.0 15.0 15.0 15.0 15.0 15.0 15.0 15.0 15.0 15.0 15.0 15.0 15.0 15.0 15.0 15.0 15.0 15.0 15.0 15.0 15.0 15.0 15.0 15.0
15.0 14.0 15.0 15.0 10.6 14.0 1.2 0.4 0.0 0.1 0.1 14.4 5.9 15.0 11.2 15.0 15.0 15.0 15.0 15.0 15.0 15.0 15.0 15.0 15.0 15.0 15.0 15.0 15.0 15.0 15.0 15.0 15.0 15.0 15.0 15.0 15.0 15.0 15.0 15.0 15.0 15.0 15.0 15.0
15.0 11.7 15.0 5.2 14.5 8.5 7.3 0.1 0.1 5.9 0.1 0.1 6.6 3.2 15.0 14.8 15.0 15.0 15.0 15.0 15.0 15.0 15.0 15.0 15.0 15.0 15.0 15.0 15.0 15.0 15.0 15.0 15.0 15.0 15.0 15.0 15.0 15.0 15.0 15.0 15.0 15.0 15.0 15.0
15.0 8.3 15.0 7.0 9.1 6.4 1.6 0.1 0.0 2.5 13.6 15.0 14.9 15.0 0.2 15.0 15.0 15.0 15.0 15.0 15.0 15.0 15.0 15.0 15.0 15.0 15.0 15.0 15.0 15.0 15.0 15.0 15.0 15.0 15.0 15.0 15.0 15.0 15.0 15.0 15.0 15.0 15.0 15.0
15.0 12.5 7.5 6.9 11.9 5.3 3.8 0.3 3.2 10.0 1.3 5.3 7.9 0.3 3.4 4.8 15.0 11.0 15.0 15.0 15.0 15.0 15.0 15.0 15.0 15.0 15.0 15.0 15.0 15.0 15.0 14.8 1.2 2.9 14.2 15.0 11.5 15.0 15.0 15.0 15.0 15.0 15.0 15.0
15.0 15.0 14.1 6.5 9.2 6.3 3.0 3.8 10.3 2.4 0.0 15.0 10.9 15.0 14.2 15.0 15.0 0.4 15.0 15.0 15.0 15.0 15.0 15.0 15.0 15.0 15.0 15.0 15.0 15.0 15.0 15.0 15.0 0.3 9.2 0.2 15.0 15.0 15.0 15.0 15.0 15.0 15.0 15.0
12.3 15.0 15.0 13.2 5.4 5.9 15.0 13.8 8.1 7.0 0.0 14.2 15.0 15.0 15.0 15.0 15.0 13.9 15.0 15.0 15.0 15.0 15.0 3.0 0.0 0.0 0.6 1.2 15.0 15.0 15.0 15.0 0.4 0.1 0.3 14.2 15.0 15.0 15.0 15.0 15.0 15.0 15.0 15.0
15.0 15.0 9.5 5.8 15.0 12.0 10.4 7.7 3.1 5.2 0.1 0.3 15.0 15.0 15.0 2.3 5.1 0.1 0.1 15.0 15.0 15.0 15.0 0.1 0.1 0.1 1.0 0.2 0.0 0.0 0.3 11.0 15.0 0.1 0.1 0.3 15.0 15.0 15.0 15.0 15.0 15.0 15.0 15.0
15.0 15.0 15.0 10.9 12.6 9.8 11.4 1.5 9.1 3.9 0.1 1.2 15.0 15.0 15.0 13.8 1.9 0.1 0.0 0.2 9.4 8.4 1.5 0.1 0.4 0.3 15.0 5.5 2.8 0.2 0.0 0.1 0.3 0.1 0.1 5.4 15.0 15.0 15.0 15.0 15.0 15.0 15.0 15.0
4.7 10.7 15.0 9.6 15.0 12.7 4.0 0.5 9.8 5.3 0.2 0.0 7.2 15.0 0.1 1.7 8.0 9.5 0.0 0.1 0.0 0.0 0.3 0.3 0.2 0.1 10.7 15.0 15.0 15.0 9.5 3.8 0.1 0.1 0.1 0.1 15.0 15.0 15.0 15.0 15.0 15.0 15.0 15.0
7.2 5.9 5.7 6.4 11.7 15.0 15.0 9.3 15.0 15.0 2.6 0.0 13.7 15.0 15.0 15.0 15.0 14.7 0.1 15.0 5.0 0.1 0.6 0.3 0.8 1.0 4.0 14.7 13.3 15.0 14.4 15.0 13.4 14.0 15.0 15.0 15.0 15.0 15.0 15.0 15.0 15.0 15.0 15.0
13.4 8.0 5.5 5.8 7.6 15.0 15.0 15.0 6.8 5.7 0.0 0.1 0.4 0.0 0.2 15.0 15.0 15.0 3.0 0.0 0.1 0.0 15.0 15.0 3.7 0.7 15.0 15.0 13.2 15.0 15.0 15.0 15.0 15.0 11.0 15.0 15.0 15.0 15.0 15.0 15.0 15.0 15.0 15.0
15.0 15.0 15.0 13.0 15.0 14.0 15.0 15.0 15.0 15.0 7.0 0.2 0.0 5.9 6.8 9.9 12.0 15.0 15.0 15.0 15.0 14.1 14.7 3.0 1.0 2.6 13.7 3.5 10.7 15.0 15.0 15.0 15.0 15.0 15.0 15.0 15.0 15.0 15.0 15.0 15.0 15.0 15.0 15.0
15.0 15.0 15.0 15.0 15.0 15.0 15.0 14.8 8.5 14.7 12.7 0.2 0.1 14.6 15.0 15.0 15.0 15.0 15.0 7.5 10.1 14.4 6.5 13.3 15.0 15.0 15.0 15.0 15.0 15.0 15.0 15.0 15.0 15.0 15.0 15.0 15.0 15.0 15.0 15.0 15.0 15.0 15.0 15.0
15.0 15.0 15.0 15.0 15.0 15.0 15.0 15.0 15.0 14.8 15.0 13.6 0.3 10.7 15.0 15.0 15.0 15.0 15.0 15.0 15.0 15.0 15.0 15.0 15.0 15.0 15.0 15.0 15.0 15.0 15.0 15.0 15.0 15.0 15.0 15.0 15.0 15.0 15.0 15.0 15.0 15.0 15.0 15.0
15.0 15.0 15.0 15.0 15.0 15.0 15.0 15.0 15.0 15.0 15.0 13.2 11.7 2.0 15.0 15.0 15.0 15.0 15.0 15.0 15.0 15.0 15.0 15.0 15.0 15.0 15.0 15.0 15.0 15.0 15.0 15.0 15.0 15.0 15.0 15.0 15.0 15.0 15.0 15.0 15.0 15.0 15.0 15.0
15.0 15.0 15.0 15.0 15.0 15.0 15.0 15.0 15.0 15.0 15.0 15.0 15.0 1.6 15.0 15.0 15.0 15.0 15.0 15.0 15.0 7.8 0.8 15.0 15.0 15.0 15.0 15.0 15.0 15.0 15.0 15.0 15.0 15.0 15.0 15.0 15.0 15.0 15.0 15.0 15.0 15.0 15.0 15.0
15.0 15.0 15.0 15.0 15.0 15.0 15.0 15.0 15.0 15.0 15.0 15.0 15.0 15.0 15.0 15.0 10.0 15.0 15.0 15.0 3.7 0.7 15.0 15.0 15.0 15.0 15.0 15.0 15.0 15.0 15.0 15.0 15.0 15.0 15.0 15.0 15.0 15.0 15.0 15.0 15.0 15.0 15.0 15.0
15.0 15.0 15.0 15.0 15.0 15.0 15.0 15.0 15.0 15.0 15.0 15.0 9.5 9.4 0.7 14.9 14.6 0.8 15.0 15.0 15.0 15.0 15.0 15.0 15.0 15.0 15.0 15.0 15.0 15.0 15.0 15.0 15.0 14.4 14.6 15.0 15.0 15.0 15.0 15.0 15.0 15.0 15.0 15.0
15.0 15.0 6.1 15.0 15.0 15.0 15.0 15.0 13.9 15.0 15.0 15.0 15.0 15.0 0.4 5.4 15.0 0.3 15.0 11.3 13.0 15.0 14.7 13.3 15.0 15.0 15.0 15.0 15.0 15.0 15.0 15.0 15.0 15.0 15.0 15.0 15.0 15.0 15.0 15.0 15.0 15.0 15.0 15.0
15.0 15.0 15.0 15.0 15.0 15.0 15.0 14.9 15.0 15.0 15.0 14.6 10.4 13.8 15.0 15.0 15.0 15.0 15.0 12.3 14.6 9.6 13.7 14.6 11.3 15.0 15.0 15.0 15.0 15.0 15.0 15.0 15.0 15.0 15.0 15.0 15.0 15.0 15.0 15.0 15.0 15.0 15.0 15.0
15.0 15.0 15.0 15.0 15.0 15.0 15.0 4.9 15.0 7.1 14.4 15.0 2.6 0.2 0.6 15.0 15.0 14.4 15.0 5.1 2.9 13.6 6.2 14.7 15.0 15.0 15.0 15.0 15.0 15.0 15.0 15.0 15.0 15.0 12.2 15.0 15.0 15.0 9.7 8.9 12.6 13.2 0.5 0.2
15.0 15.0 14.2 14.3 4.7 4.8 0.2 0.4 3.9 6.3 14.9 15.0 0.9 0.1 0.1 0.2 1.7 3.0 2.2 0.4 13.6 0.9 1.8 15.0 15.0 15.0 15.0 15.0 15.0 15.0 15.0 15.0 15.0 15.0 8.6 0.1 0.1 0.3 15.0 15.0 15.0 15.0 0.3 1.6
15.0 15.0 0.3 0.2 1.0 4.4 14.6 5.5 8.4 3.6 15.0 15.0 15.0 15.0 15.0 0.1 9.5 10.4 14.7 1.3 2.0 8.9 15.0 14.4 15.0 15.0 15.0 15.0 15.0 15.0 15.0 15.0 15.0 15.0 15.0 3.9 1.6 0.2 0.2 9.3 10.3 15.0 15.0 15.0
15.0 14.6 11.7 6.1 9.8 0.3 15.0 14.4 10.9 14.3 1.7 15.0 15.0 9.8 15.0 15.0 15.0 14.1 13.9 15.0 15.0 15.0 10.6 5.6 15.0 15.0 14.7 13.4 8.0 3.8 15.0 15.0 15.0 15.0 13.4 2.5 1.9 2.0 0.7 0.2 0.2 15.0 15.0 14.8
15.0 7.2 1.0 2.5 15.0 15.0 13.9 15.0 15.0 15.0 15.0 15.0 15.0 15.0 13.7 15.0 1.1 6.9 15.0 15.0 15.0 3.9 0.1 6.4 15.0 15.0 15.0 15.0 15.0 15.0 15.0 15.0 15.0 15.0 12.5 3.5 1.3 1.1 2.2 7.5 0.4 0.2 1.3 7.8